Location: Eimen
(51.8766°N, 9.7806°E)
Time: 07:41:49
(UTC+00:00)

Envisat - Pass Details

Date: 13 August 2024
Orbit: 762 x 764 km, 98.3° (Epoch: 08 September)

Event Time Altitude Azimuth Distance (km) Brightness Sun altitude
Rises 03:12:41 0° 12° (NNE) 3,241 7.0 -7.5°
Reaches altitude 10° 03:15:01 10° 9° (N) 2,311 6.2 -7.2°
Maximum altitude 03:20:01 60° 291° (WNW) 876 3.2 -6.6°
Drops below altitude 10° 03:24:59 10° 212° (SSW) 2,294 4.9 -5.9°
Enters shadow 03:26:31 - 210° (SSW) 2,899 5.4 -5.7°
